User: anonymous   Login
Location: Lourdes
(43.1000°N, 0.0500°W)
Time: 18:30:32
(UTC+00:00)
Language:

IRIDIUM 33 DEB - Orbit

View from above orbital plane
View from above orbital plane
View from above satellite
View from above satellite

Ground track
Ground track

The orbit data is extracted from the following two-line orbital elements,

1 38016U 97051YC  21172.23944506  .00013477  00000-0  12344-2 0  9994
2 38016  86.3961 345.6139 0024646  35.4489  89.9417 14.94607936400550
Epoch (UTC): 21 June 2021 05:44:48
Eccentricity: 0.0024646
inclination: 86.3961°
perigee height: 566 km
apogee height: 601 km
right ascension of ascending node: 345.6139°
argument of perigee: 35.4489°
revolutions per day: 14.94607936
mean anomaly at epoch: 89.9417°
orbit number at epoch: 40055

The dashed part of the orbit path shows where the satellite is in the earth's shadow,  

DLR